Location: *
(41.2915°N, 22.9499°E)
Time: 22:27:52
(UTC+00:00)

Daily predictions for brighter satellites

Satellite Brightness Start Highest point End
(mag) Time Altitude Azimuth Time Altitude Azimuth Time Altitude Azimuth
OBJECT-B 3.3 18:33:51 10° SW 18:36:00 19° W 18:38:12 10° NW
Cosmos 1954 Rocket 4.1 18:33:19 10° NNW 18:38:34 65° ENE 18:43:44 10° SSE
Cosmos 1656 4.5 18:36:22 10° N 18:41:26 37° ENE 18:46:31 10° SE
ATLAS 2AS CENTAUR R/B 2.8 18:34:27 10° NNW 18:41:33 73° NE 18:48:08 10° SE
GEOS 3 Rocket 3.9 18:36:51 10° SE 18:41:51 58° NE 18:46:53 10° NNW
Cosmos 1544 Rocket 4.1 18:39:45 10° N 18:43:51 40° ENE 18:47:56 10° SSE
Lacrosse 5 rocket 2.1 18:42:13 10° WNW 18:45:54 43° SW 18:49:45 10° SSE
Cosmos 1980 Rocket 4.3 18:49:25 10° NNE 18:52:05 13° NE 18:54:46 10° ENE
Resurs 1-3 4.3 18:48:27 10° S 18:52:44 54° W 18:57:02 10° NNW
USA 32 4.2 18:47:45 10° SSE 18:52:49 55° E 18:57:55 10° NNE
Cosmos 1697 Rocket 4.2 18:48:30 10° N 18:52:58 23° NE 18:57:24 10° ESE
TSX-5 4.3 18:49:58 10° SSW 18:54:13 67° ESE 18:59:47 10° NNE
PSLV R/B 3.9 18:53:10 10° NNE 18:57:20 83° E 19:01:32 10° SSW
COSMOS 2406 4.4 18:54:48 10° SSE 18:59:04 22° E 19:03:22 10° NE
SPOT 1/Viking Rocket 3.6 18:54:01 10° SSE 18:59:07 71° ENE 19:04:17 10° N
IRS-1A Rocket 4.4 18:54:09 10° SSE 19:00:03 80° ENE 19:05:57 10° NNW
NOSS 2-1 (E) 4.3 18:56:34 10° NNW 19:01:28 77° NE 19:07:54 12° SE
Cosmos 1025 Rocket 3.8 19:02:01 10° SSW 19:06:12 54° W 19:10:26 10° N
X-37B 1.6 19:10:14 10° WNW 19:12:53 37° N 19:15:33 10° ENE
SPOT 5 3.8 19:10:32 14° ESE 19:13:30 28° ENE 19:17:11 10° N
Cosmos 1833 Rocket 2.8 19:09:54 10° S 19:15:18 52° ESE 19:20:44 10° NNE
Cosmos 1452 Rocket 3.5 19:11:18 10° SSW 19:16:32 77° ESE 19:21:48 10° NNE
Cosmos 1703 3.6 19:16:02 14° SSE 19:19:07 44° E 19:22:47 10° NNE
Terra 3.2 19:17:35 14° ESE 19:20:33 25° ENE 19:24:25 10° NNE
Delta 2 Rocket 3.7 19:19:06 10° WSW 19:22:04 29° S 19:23:21 22° SE
Cosmos 1110 Rocket 4.1 19:17:33 10° S 19:22:39 54° ESE 19:27:48 10° NNE
RESURS DK-1 2.8 19:18:50 10° NNW 19:22:51 48° ENE 19:25:28 20° SE
ERS-1 Rocket 3.8 19:22:34 17° SE 19:25:55 37° ENE 19:30:31 10° N
Helios 1A Rocket 3.8 19:24:58 19° ESE 19:27:17 34° ENE 19:31:00 10° N
Resurs 01 Rocket 2.5 19:24:26 10° S 19:28:42 46° W 19:33:01 10° NNW
CZ-4B R/B 2.5 19:28:35 10° N 19:31:18 38° WNW 19:34:00 10° SW
Cosmos 2184 Rocket 4.1 19:26:12 10° N 19:32:21 64° E 19:37:07 18° SSE
Cosmos 2228 3.4 19:32:09 10° N 19:36:15 46° E 19:38:27 24° SE
IRAS Rocket 4.4 19:33:25 10° NNE 19:39:01 78° WNW 19:44:33 10° SSW
Lacrosse 5 2.8 19:34:48 10° WNW 19:39:30 38° SW 19:42:52 17° S
Cosmos 1408 4.5 19:42:17 14° E 19:42:17 14° E 19:44:02 10° NE
Cosmos 1328 4.3 19:46:39 29° SE 19:48:08 41° E 19:51:56 10° NNE
Cosmos 2082 Rocket 2.7 19:45:37 20° SSE 19:48:59 40° ESE 19:54:16 10° NE
Cosmos 1271 Rocket 4.4 19:46:47 10° NNW 19:50:18 31° W 19:53:46 10° SSW
Cosmos 2360 4.4 19:44:49 10° NNW 19:50:31 62° ENE 19:53:50 25° SE
USA 267 3.8 19:46:39 10° ENE 19:52:27 33° SE 19:58:12 10° S
USA 245 3.6 19:52:45 21° S 19:55:25 61° WSW 19:58:55 10° NNW
Cosmos 1536 Rocket 4.4 19:52:04 10° SSW 19:56:14 48° W 20:00:28 10° N
Meteor 1-21 Rocket 4.1 19:54:30 15° S 19:59:10 84° E 20:04:53 10° N
Cosmos 1455 4.2 19:56:25 10° NW 19:59:33 25° W 20:02:41 10° SW
CARTOSAT-1 4.5 19:56:43 16° SSW 19:59:51 44° W 20:04:00 10° NNW
ARIANE 5 R/B 3.3 19:58:11 29° ESE 19:59:56 42° ENE 20:04:06 10° N
Cosmos 1606 Rocket 3.6 20:00:23 10° N 20:04:41 63° E 20:06:16 36° SSE
GP-B 4.4 20:01:49 10° NNE 20:05:28 24° E 20:06:09 23° E
Cosmos 1741 Rocket 4.3 20:01:38 10° NNW 20:06:54 62° WSW 20:09:58 25° S
Cosmos 192 4.2 20:04:06 23° S 20:07:08 69° ESE 20:12:01 10° NNE
ATLAS 5 CENTAUR R/B 4.1 20:00:34 10° NW 20:07:40 25° W 20:10:21 13° SSW
SPOT 3 Rocket 4.2 20:05:32 18° S 20:09:13 49° W 20:14:18 10° NNW
Tiangong 3.8 20:09:37 10° SW 20:09:38 10° SW 20:09:38 10° SW
Cosmos 2074 Rocket 4.5 20:08:52 10° NNW 20:15:00 58° W 20:19:38 18° SSW
Cosmos 2327 Rocket 4.4 20:09:01 10° N 20:15:21 81° E 20:18:42 29° SSE
Nadezhda 1 Rocket 4.2 20:18:42 16° SSW 20:23:40 69° W 20:29:43 10° N
Cosmos 2181 Rocket 4.5 20:22:33 32° SE 20:24:40 42° E 20:30:27 10° NNE
Cosmos 1892 2.9 20:27:17 48° E 20:27:17 48° E 20:30:56 10° NNE
Cosmos 1726 Rocket 3.4 20:23:06 10° N 20:27:27 86° E 20:28:35 49° SSE
ATLAS 2AS CENTAUR R/B 4.4 20:26:44 10° WNW 20:31:38 21° WSW 20:35:55 11° SSW
Meteor 2-1 Rocket 4.4 20:27:11 10° NNW 20:32:40 67° W 20:35:17 31° S
Cosmos 1932 4.4 20:29:22 23° SSW 20:33:21 67° ESE 20:39:37 10° NE
Cosmos 1992 Rocket 4.3 20:35:13 42° SE 20:36:10 47° ESE 20:41:10 10° NNE
SL-16 R/B 3.9 20:32:15 10° N 20:36:37 22° NE 20:39:33 15° E
Cosmos 1980 Rocket 2.2 20:31:24 10° NNW 20:37:07 76° ENE 20:39:07 41° SE
Cosmos 1697 Rocket 3.1 20:31:48 10° NNW 20:37:16 54° WSW 20:39:32 33° SSW
Cosmos 2344 4.4 20:31:10 10° NW 20:40:32 88° ENE 20:48:13 29° SE
SL-8 R/B 3.8 20:35:49 10° WNW 20:40:33 61° SW 20:41:22 52° S
Cosmos 2369 3.7 20:34:48 10° NNW 20:40:34 90° ENE 20:42:35 43° SSE
COSMOS 2406 3.9 20:37:18 10° SW 20:42:56 54° WNW 20:48:35 10° NNE
TIMED 4.5 20:45:10 48° SSW 20:46:21 82° WNW 20:50:43 10° NNE
ATLAS 5 CENTAUR R/B 1.3 20:48:00 59° ENE 20:48:00 59° ENE 20:51:28 10° NE
X-37B 2.3 20:45:41 10° WNW 20:47:01 25° WNW 20:47:01 25° WNW
In-Cosmos 22 Rocket 4.1 20:48:39 46° SSE 20:50:13 69° E 20:55:39 10° NNE
SPOT 5 4.3 20:49:45 19° SW 20:51:33 25° W 20:55:08 10° NW
Terra 3.0 20:56:28 27° SW 20:58:07 35° W 21:02:28 10° NNW
Meteor 1-27 4.3 20:53:24 10° N 20:58:56 63° ENE 21:00:16 48° SE
Cosmos 1869 3.7 20:56:08 10° N 20:59:42 49° ENE 20:59:42 49° ENE
Cosmos 2084 Rocket 3.7 20:56:17 10° NW 21:00:03 50° WSW 21:00:03 50° WSW
ADEOS Rocket 4.4 20:58:45 24° ESE 21:02:16 37° ENE 21:09:09 10° N
ALOS 2 4.2 21:02:25 22° ENE 21:02:59 23° ENE 21:06:24 10° NNE
ASTEX 1 3.5 21:00:00 10° N 21:04:59 73° W 21:06:20 48° SSW
SL-8 Rocket 3.9 21:00:07 10° N 21:06:22 85° W 21:08:22 46° S
Cosmos 2322 Rocket 3.6 21:07:26 10° N 21:12:21 29° NE 21:14:37 22° E
Cosmos 1825 2.4 21:15:03 67° NNW 21:15:03 67° NNW 21:18:25 10° N
Cosmos 2058 Rocket 3.6 21:10:28 10° NNW 21:14:45 49° W 21:15:19 46° WSW
Cosmos 1408 4.1 21:16:15 27° W 21:16:30 27° WNW 21:19:30 10° NNW
Cosmos 1626 Rocket 3.4 21:17:39 85° SW 21:17:44 86° W 21:22:06 10° N
Cosmos 2278 3.6 21:17:34 10° NNW 21:23:18 79° WSW 21:24:23 59° S
Cosmos 2366 rocket 4.1 21:19:06 10° N 21:25:26 74° W 21:27:20 47° SSW
Cosmos 968 Rocket 4.3 21:20:53 10° NW 21:25:41 38° WSW 21:26:36 35° SW
Cosmos 2333 Rocket 4.5 21:23:19 10° N 21:26:59 17° NE 21:30:37 10° E
Cosmos 2218 Rocket 4.1 21:22:32 10° NNW 21:28:55 69° W 21:30:50 46° SSW
Meteor 2-20 4.4 21:29:48 55° SSE 21:31:00 68° E 21:37:03 10° NNE
USA 276 4.3 21:28:49 10° NW 21:31:01 24° N 21:31:01 24° N
Cosmos 2082 Rocket 3.8 21:28:07 10° WSW 21:33:09 31° NW 21:38:11 10° N
SJ 16-02 2.3 21:31:06 10° N 21:35:15 38° ENE 21:35:23 38° ENE
USA 267 3.5 21:29:13 10° NE 21:35:44 70° NW 21:42:14 10° WSW
Cosmos 1867 4.0 21:30:53 10° NW 21:36:07 47° WSW 21:36:29 46° SW
H-2A R/B 3.8 21:40:56 10° NNE 21:44:31 60° NE 21:44:31 60° NE
Cosmos 2360 Rocket 3.3 21:43:11 10° N 21:48:23 36° ENE 21:50:16 28° E
Spot 4 3.7 21:48:33 74° WSW 21:48:39 75° WSW 21:53:27 10° NNW
Cosmos 2058 3.7 21:50:01 43° ENE 21:50:01 43° ENE 21:53:17 10° NNE
Cosmos 2221 4.4 21:48:07 10° NNE 21:51:23 20° ENE 21:51:29 20° ENE
SL-08 R/B 4.5 21:45:17 10° N 21:51:46 90° NNW 21:53:14 58° S
Cosmos 1606 3.5 21:50:25 10° N 21:53:24 47° NNE 21:53:24 47° NNE
Meteor 2-20 Rocket 4.3 21:58:19 63° SSE 21:59:23 81° E 22:05:30 10° N
Cosmos 44 4.2 22:02:58 36° ENE 22:02:58 36° ENE 22:06:00 10° NE
Cosmos 2237 4.2 21:58:15 10° NNW 22:03:59 71° ENE 22:04:54 60° ESE
USA 234 3.4 22:04:42 29° ESE 22:08:13 69° NE 22:14:45 10° NW
Cosmos 1758 Rocket 4.2 22:08:36 48° WNW 22:08:36 48° WNW 22:12:44 10° N
Cosmos 1633 4.4 22:12:09 24° NW 22:12:09 24° NW 22:14:24 10° NNW
Cosmos 1821 Rocket 4.2 22:14:15 10° NNW 22:20:19 56° W 22:21:23 49° SW
Cosmos 1980 Rocket 4.2 22:17:22 10° WNW 22:20:21 15° W 22:20:52 14° WSW
SL-16 R/B 2.3 22:15:34 10° NNW 22:21:08 60° WSW 22:21:23 59° WSW
SL-4 R/B 3.3 22:23:23 32° NNE 22:23:23 32° NNE 22:25:42 10° NE
Cosmos 2219 Rocket 3.6 22:20:28 10° N 22:25:29 31° ENE 22:28:08 21° E
CRYOSAT 2 4.3 22:31:17 75° E 22:31:17 75° E 22:36:11 10° N
Cosmos-2242 4.3 22:28:02 10° NNW 22:31:12 30° WNW 22:31:12 30° WNW
ATLAS 5 CENTAUR R/B 4.1 22:30:29 10° WNW 22:32:35 14° NW 22:34:49 10° N
Cosmos 1605 Rocket 4.3 22:30:34 10° N 22:36:56 62° E 22:38:25 49° SE
ERS-2 3.4 22:35:11 10° N 22:37:40 38° NNW 22:37:40 38° NNW
ALOS 2 3.9 22:39:49 31° WNW 22:39:49 31° WNW 22:43:06 10° NNW
Meteor 2-11 Rocket 4.3 22:36:25 10° N 22:42:33 89° W 22:43:30 66° S
Cosmos 1076 Rocket 4.2 22:46:53 47° ENE 22:46:53 47° ENE 22:50:35 10° NNE
Cosmos 468 Rocket 4.5 22:47:19 47° ESE 22:47:19 47° ESE 22:52:23 10° NNE
ADEOS Rocket 3.9 22:45:43 41° SW 22:47:27 47° W 22:54:49 10° NNW
Cosmos 972 Rocket 4.0 22:48:59 10° NNW 22:54:16 76° WSW 22:54:40 72° SW
NOSS 3-2 (A) 3.7 22:54:56 44° ESE 22:54:56 44° ESE 23:00:33 10° NE
Cosmos 540 Rocket 4.3 22:55:57 37° ESE 22:55:57 37° ESE 23:00:40 10° NE
Cosmos 2322 Rocket 2.8 22:51:11 10° NW 22:56:24 42° WSW 22:56:24 42° WSW
Cosmos 1933 4.1 22:53:07 10° N 22:56:26 47° NE 22:56:26 47° NE
SL-27 R/B 4.2 23:00:48 29° N 23:00:48 29° N 23:02:35 10° NNE
ISS -1.6 23:01:42 24° NE 23:01:42 24° NE 23:03:15 10° NE
PSLV R/B 4.2 22:58:16 10° N 23:02:53 51° WNW 23:03:01 51° WNW
Cosmos 2285 Rocket 4.1 23:08:13 52° SSE 23:09:28 62° ESE 23:15:48 10° NNE
CENTAUR R/B 2.5 23:09:34 52° SE 23:10:08 54° ESE 23:16:38 10° NE
Cosmos 2333 Rocket 2.1 23:06:13 10° NNW 23:12:01 85° WSW 23:12:51 67° S
COSMOS 2487 4.4 23:14:00 24° N 23:14:00 24° N 23:15:28 10° N
Gbstr 26 Del rocket 4.4 23:11:09 24° WNW 23:13:23 40° NNW 23:18:25 10° NE
SJ 16-02 3.4 23:10:24 10° NW 23:12:19 17° WNW 23:12:19 17° WNW
Cosmos 2151 3.1 23:14:58 70° NE 23:14:58 70° NE 23:18:52 10° N
Cosmos 1898 Rocket 4.0 23:13:58 10° N 23:19:03 53° ENE 23:20:27 40° ESE
Meteor 2-3 Rocket 3.6 23:20:57 62° SW 23:21:43 71° W 23:27:18 10° N
Cosmos 1812 3.3 23:23:34 10° N 23:26:44 56° NNE 23:26:44 56° NNE
Cosmos 1937 Rocket 4.3 23:22:22 10° N 23:27:25 45° ENE 23:29:31 30° ESE
Cosmos 2221 3.8 23:25:04 10° NNW 23:28:17 31° WNW 23:28:17 31° WNW
Cosmos 2227 Rocket 3.9 23:29:43 18° ESE 23:31:13 20° E 23:35:11 10° NE
Cosmos 1153 Rocket 4.4 23:25:22 10° N 23:31:44 82° W 23:33:16 54° S
Cosmos 1842 Rocket 4.4 23:27:30 10° NNW 23:31:14 41° WNW 23:31:14 41° WNW
Cosmos 2360 Rocket 3.1 23:27:16 10° NW 23:32:00 33° W 23:32:00 33° W
Cosmos 1862 3.9 23:34:11 50° ENE 23:34:11 50° ENE 23:37:39 10° NNE
Resurs 1-4 Rocket 2.9 23:31:47 10° NNE 23:36:49 41° E 23:38:01 36° SE
Cosmos 2333 4.4 23:31:25 10° NNW 23:37:01 52° WSW 23:37:21 51° WSW
Cosmos 1782 3.4 23:34:03 10° NNW 23:37:13 49° NW 23:37:13 49° NW
NOSS 3-2 (C) 3.4 23:41:34 48° SSE 23:42:23 52° ESE 23:48:17 10° NE
CZ-2D R/B 2.7 23:40:24 10° NNE 23:45:26 47° E 23:46:39 39° SE
COSMOS 2455 4.2 23:41:18 10° NNW 23:46:51 37° NE 23:52:21 10° ESE
USA 234 3.9 23:52:01 34° WSW 23:52:01 34° WSW 23:57:22 10° WNW
Cosmos 1727 Rocket 4.3 23:51:12 43° SW 23:52:53 55° W 23:59:04 10° N
